Home   Weather   Redlands   Past weeks

Flag for USA Past Weather in Redlands, California, USA — Yesterday and Last 2 Weeks

Now
66 °F

Sunny.


Feels Like: 66 °F
Forecast: 40 / 64 °F
Wind: 15 mph from North

Location: Norton Air Force Base / San Bern

Current Time: Jan 16, 2017 at 4:42:34 pm

Latest Report: Jan 16, 2017 at 3:48 pm


Visibility: 10 mi

Pressure: 29.99 "Hg

Humidity: 18%

Dew Point: 21 °F

Location of RedlandsLocation

Past Weather in Redlands — Graph

°F

Redlands Temperature Yesterday

Maximum temperature yesterday: 63 °F (at 2:50 pm)
Minimum temperature yesterday: 42 °F (at 5:39 am)
Average temperature yesterday: 52 °F

High & Low Weather Summary for the Past Weeks

 TemperatureHumidityPressure
High75 °F (Jan 8, 1:47 pm)94% (Jan 5, 9:15 am)30.25 "Hg (Jan 5, 9:15 am)
Low39 °F (Jan 4, 2:19 am)19% (Jan 16, 2:50 pm)29.92 "Hg (Jan 5, 4:39 pm)
Average53 °F73%30.08 "Hg
* Reported Jan 1 3:39 pm — Jan 16 3:39 pm, Redlands, Weather by CustomWeather, © 2017

Note: Actual official high and low records may vary slightly from our data, if they occured in-between our weather recording intervals... More about our weather records

Advertising

Redlands Weather History for the Previous 24 Hours

Scroll right to see more
 ConditionsComfort  
Time TempWeatherWind HumidityBarometerVisibility
3:39 pm
Mon, Jan 16
66 °FSunny.13 mph19%29.99 "Hg10 mi
2:50 pm66 °FSunny.13 mph19%29.99 "Hg10 mi
2:39 pm67 °FSunny.5 mph28%29.99 "Hg10 mi
1:45 pm64 °FPassing clouds.No wind40%30.00 "Hg10 mi
12:46 pm63 °FPassing clouds.6 mph45%30.02 "Hg10 mi
11:38 am60 °FSunny.No wind51%30.06 "Hg10 mi
10:48 am59 °FScattered clouds.No wind63%30.09 "Hg10 mi
10:39 am57 °FSunny.No wind67%30.10 "Hg10 mi
9:47 am54 °FPassing clouds.No wind77%30.10 "Hg10 mi
8:46 am52 °FScattered clouds.No wind72%30.09 "Hg10 mi
7:47 am46 °FPartly sunny.6 mph82%30.08 "Hg10 mi
7:38 am44 °FSunny.No wind83%30.07 "Hg10 mi
7:00 am43 °FBroken clouds.3 mph81%30.07 "Hg10 mi
6:38 am45 °FPassing clouds.3 mph78%30.06 "Hg10 mi
5:39 am46 °FPassing clouds.5 mph82%30.05 "Hg10 mi
5:18 am45 °FPassing clouds.No wind79%30.04 "Hg10 mi
4:59 am46 °FClear.No wind78%30.04 "Hg10 mi
4:18 am48 °FClear.No wind74%30.03 "Hg10 mi
3:59 am49 °FClear.3 mph72%30.03 "Hg10 mi
3:18 am49 °FPassing clouds.No wind75%30.05 "Hg10 mi
2:59 am51 °FPassing clouds.No wind71%30.05 "Hg10 mi
2:38 am50 °FClear.3 mph75%30.05 "Hg10 mi
2:19 am51 °FPassing clouds.3 mph75%30.06 "Hg10 mi
1:58 am52 °FMostly cloudy.3 mph71%30.06 "Hg10 mi
1:38 am53 °FOvercast.No wind67%30.06 "Hg10 mi
1:19 am53 °FMostly cloudy.6 mph67%30.06 "Hg10 mi
12:58 am53 °FOvercast.No wind69%30.06 "Hg10 mi
12:38 am52 °FOvercast.5 mph68%30.06 "Hg10 mi
12:19 am52 °FOvercast.3 mph69%30.06 "Hg10 mi
11:58 pm
Sun, Jan 15
52 °FOvercast.3 mph70%30.07 "Hg10 mi
11:38 pm52 °FOvercast.No wind69%30.07 "Hg10 mi
11:19 pm52 °FOvercast.3 mph71%30.07 "Hg10 mi
10:58 pm50 °FOvercast.5 mph79%30.07 "Hg10 mi
10:38 pm50 °FOvercast.3 mph78%30.08 "Hg10 mi
10:19 pm50 °FOvercast.3 mph79%30.08 "Hg10 mi
9:58 pm50 °FOvercast.3 mph80%30.08 "Hg10 mi
8:50 pm50 °FClear.No wind82%30.06 "Hg5 mi
7:50 pm54 °FHaze.5 mph72%30.05 "Hg5 mi
6:50 pm54 °FPassing clouds.5 mph72%30.05 "Hg7 mi
6:38 pm54 °FClear.5 mph72%30.04 "Hg10 mi
5:50 pm57 °FMostly cloudy.No wind63%30.04 "Hg7 mi
5:39 pm56 °FPassing clouds.No wind67%30.03 "Hg10 mi
4:50 pm59 °FMore clouds than sun.No wind59%30.03 "Hg7 mi
Weather by CustomWeather, © 2017

See weather overviewHow to use our weather pages